Nucla Hopkins Field Airport, CO

6:20 PM MDT on April 27, 2017 (GMT -0600)
Nucla Hopkins Field Airport

Weather History for KAIB - April, 2014

Change the Weather History Date:

Saturday, April 26, 2014

  Actual Average (KTEX) Record (KTEX)
Temperature  
Mean Temperature 48 °F -  
Max Temperature 62 °F 48 °F 60 °F (2001)
Min Temperature 32 °F 28 °F 23 °F (2011)
Degree Days  
Heating Degree Days 18    
Moisture  
Dew Point 28 °F    
Average Humidity 50    
Maximum Humidity 100    
Minimum Humidity 20    
Precipitation  
Precipitation 0.00 in - - ()
Sea Level Pressure  
Sea Level Pressure 29.67 in    
Wind  
Wind Speed 17 mph (South)    
Max Wind Speed 31 mph    
Max Gust Speed 44 mph    
Visibility 9 miles    
Events Rain , Snow , Thunderstorm    
Averages and records for this station are not official NWS values.
T = Trace of Precipitation, MM = Missing Value Source: NWS Daily Summary

Daily Weather History Graph

Daily Weather History Graph

Search for Another Location

Airport or City:

Trip Planner

Search our weather history database for the weather conditions in past years. The results will help you decide how hot, cold, wet, or windy it might be!

Date:

Astronomy

Apr. 26, 2014 Rise Set
Actual Time 6:23 AM MDT 8:00 PM MDT
Civil Twilight 5:55 AM MDT 8:29 PM MDT
Nautical Twilight 5:21 AM MDT 9:03 PM MDT
Astronomical Twilight 4:46 AM MDT 9:39 PM MDT
Moon 4:47 AM MDT (4/26) 5:34 PM MDT (4/26)
Length of Visible Light 14h 33m
Length of Day
13h 37m
Waning Crescent, 8% of the Moon is Illuminated
Apr 26
Waning Crescent
Apr 29
New
May 6
First Quarter
May 14
Full
May 21
Last Quarter

Hourly Weather History & Observations

Time (MDT) Temp. Windchill Dew Point Humidity Pressure Visibility Wind Dir Wind Speed Gust Speed Precip Events Conditions
12:15 AM 62.6 °F - 21.2 °F 20% 29.77 in 10.0 mi South 18.4 mph 24.2 mph N/A   Unknown
12:35 AM 60.8 °F - 21.2 °F 22% 29.77 in 10.0 mi SSW 19.6 mph 28.8 mph N/A   Unknown
12:55 AM 60.8 °F - 21.2 °F 22% 29.76 in 10.0 mi SSW 18.4 mph 26.5 mph N/A   Unknown
1:15 AM 60.8 °F - 21.2 °F 22% 29.76 in 10.0 mi South 21.9 mph 28.8 mph N/A   Unknown
1:35 AM 60.8 °F - 21.2 °F 22% 29.76 in 10.0 mi South 19.6 mph 27.6 mph N/A   Unknown
1:55 AM 59.0 °F - 21.2 °F 23% 29.75 in 10.0 mi South 20.7 mph 26.5 mph N/A   Unknown
2:15 AM 59.0 °F - 21.2 °F 23% 29.73 in 10.0 mi SSW 16.1 mph 25.3 mph N/A   Unknown
2:35 AM 59.0 °F - 21.2 °F 23% 29.72 in 10.0 mi SSW 19.6 mph 25.3 mph N/A   Unknown
2:55 AM 59.0 °F - 21.2 °F 23% 29.71 in 10.0 mi SSW 18.4 mph 29.9 mph N/A   Unknown
3:15 AM 59.0 °F - 19.4 °F 22% 29.69 in 10.0 mi South 20.7 mph 27.6 mph N/A   Unknown
3:35 AM 59.0 °F - 21.2 °F 23% 29.68 in 10.0 mi SSW 27.6 mph 35.7 mph N/A   Unknown
3:55 AM 59.0 °F - 21.2 °F 23% 29.68 in 10.0 mi South 17.3 mph 29.9 mph N/A   Unknown
4:15 AM 59.0 °F - 21.2 °F 23% 29.67 in 10.0 mi South 20.7 mph 29.9 mph N/A   Unknown
4:35 AM 57.2 °F - 21.2 °F 25% 29.67 in 10.0 mi South 15.0 mph 21.9 mph N/A   Unknown
4:55 AM 57.2 °F - 19.4 °F 23% 29.67 in 10.0 mi South 15.0 mph 28.8 mph N/A   Unknown
5:15 AM 57.2 °F - 19.4 °F 23% 29.66 in 10.0 mi South 18.4 mph 26.5 mph N/A   Unknown
5:35 AM 57.2 °F - 19.4 °F 23% 29.65 in 10.0 mi South 19.6 mph 27.6 mph N/A   Unknown
5:55 AM 57.2 °F - 19.4 °F 23% 29.64 in 10.0 mi South 18.4 mph 27.6 mph N/A   Unknown
6:15 AM 57.2 °F - 19.4 °F 23% 29.64 in 10.0 mi South 17.3 mph 23.0 mph N/A   Unknown
6:35 AM 55.4 °F - 19.4 °F 25% 29.64 in 10.0 mi South 16.1 mph 21.9 mph N/A   Unknown
6:55 AM 57.2 °F - 19.4 °F 23% 29.64 in 10.0 mi South 18.4 mph 28.8 mph N/A   Unknown
7:15 AM 57.2 °F - 19.4 °F 23% 29.64 in 10.0 mi South 23.0 mph 32.2 mph N/A   Unknown
7:35 AM 57.2 °F - 19.4 °F 23% 29.64 in 7.0 mi South 21.9 mph 34.5 mph N/A   Unknown
7:55 AM 55.4 °F - 21.2 °F 26% 29.65 in 10.0 mi South 26.5 mph 38.0 mph N/A   Unknown
8:15 AM 55.4 °F - 21.2 °F 26% 29.65 in 10.0 mi SSW 15.0 mph 32.2 mph N/A   Unknown
8:35 AM 55.4 °F - 19.4 °F 25% 29.64 in 7.0 mi South 31.1 mph 36.8 mph N/A   Unknown
8:55 AM 55.4 °F - 21.2 °F 26% 29.64 in 10.0 mi South 27.6 mph 43.7 mph N/A   Unknown
9:15 AM 55.4 °F - 23.0 °F 29% 29.64 in 10.0 mi SSW 23.0 mph 42.6 mph N/A   Unknown
9:35 AM 59.0 °F - 23.0 °F 25% 29.64 in 7.0 mi SSW 24.2 mph 40.3 mph N/A   Unknown
9:55 AM 59.0 °F - 23.0 °F 25% 29.63 in 10.0 mi South 28.8 mph 36.8 mph N/A   Unknown
10:15 AM 57.2 °F - 24.8 °F 29% 29.63 in 10.0 mi SSW 29.9 mph 36.8 mph N/A   Unknown
10:55 AM 55.4 °F - 23.0 °F 29% 29.63 in 10.0 mi South 21.9 mph 36.8 mph N/A   Unknown
11:15 AM 55.4 °F - 24.8 °F 31% 29.64 in 10.0 mi SSW 18.4 mph 31.1 mph N/A   Unknown
11:35 AM 53.6 °F - 26.6 °F 35% 29.64 in 10.0 mi SSW 26.5 mph 35.7 mph N/A   Unknown
11:55 AM 51.8 °F - 28.4 °F 41% 29.65 in 10.0 mi SSW 24.2 mph 32.2 mph N/A   Unknown
12:15 PM 50.0 °F - 32.0 °F 50% 29.67 in 10.0 mi SSW 19.6 mph 29.9 mph N/A Rain Light Rain
12:35 PM 46.4 °F 39.2 °F 33.8 °F 62% 29.66 in 10.0 mi South 18.4 mph 31.1 mph N/A Rain Light Rain
12:55 PM 48.2 °F - 33.8 °F 58% 29.64 in 10.0 mi South 18.4 mph 28.8 mph N/A Rain Light Rain
1:15 PM 50.0 °F - 32.0 °F 50% 29.63 in 10.0 mi South 17.3 mph 25.3 mph N/A   Unknown
1:35 PM 51.8 °F - 33.8 °F 50% 29.63 in 10.0 mi SSW 13.8 mph 19.6 mph N/A   Unknown
1:55 PM 46.4 °F 42.9 °F 37.4 °F 71% 29.63 in 7.0 mi WSW 6.9 mph - N/A Rain Light Rain
2:15 PM 42.8 °F 34.5 °F 37.4 °F 81% 29.65 in 5.0 mi SW 18.4 mph 26.5 mph N/A   Drizzle
2:35 PM 41.0 °F 31.4 °F 35.6 °F 81% 29.65 in 4.0 mi SW 21.9 mph 31.1 mph N/A Rain Light Rain
2:55 PM 44.6 °F 39.2 °F 41.0 °F 87% 29.64 in 10.0 mi WSW 10.4 mph 18.4 mph N/A   Unknown
3:15 PM 44.6 °F 38.8 °F 37.4 °F 76% 29.64 in 10.0 mi WSW 11.5 mph 18.4 mph N/A   Unknown
3:35 PM 44.6 °F 36.4 °F 35.6 °F 71% 29.64 in 10.0 mi SW 20.7 mph 28.8 mph N/A   Light Drizzle
3:55 PM 41.0 °F 33.9 °F 35.6 °F 81% 29.63 in 10.0 mi South 12.7 mph 23.0 mph N/A Rain Light Rain
4:15 PM 42.8 °F 36.2 °F 35.6 °F 76% 29.61 in 10.0 mi ESE 12.7 mph 19.6 mph N/A Rain Light Rain
4:35 PM 42.8 °F 41.1 °F 35.6 °F 76% 29.65 in 10.0 mi ENE 3.5 mph - N/A   Unknown
4:55 PM 42.8 °F 39.3 °F 35.6 °F 76% 29.65 in 10.0 mi ESE 5.8 mph - N/A Thunderstorm Unknown
5:15 PM 41.0 °F 35.2 °F 35.6 °F 81% 29.65 in 10.0 mi SE 9.2 mph - N/A   Drizzle
5:35 PM 42.8 °F 36.6 °F 35.6 °F 76% 29.67 in 10.0 mi SSE 11.5 mph - N/A   Light Drizzle
5:55 PM 41.0 °F 33.9 °F 35.6 °F 81% 29.67 in 10.0 mi South 12.7 mph 19.6 mph N/A   Drizzle
6:15 PM 41.0 °F 35.2 °F 35.6 °F 81% 29.67 in 10.0 mi South 9.2 mph - N/A Rain Light Rain
6:35 PM 42.8 °F 36.2 °F 35.6 °F 76% 29.64 in 10.0 mi South 12.7 mph - N/A   Unknown
6:55 PM 42.8 °F 40.1 °F 33.8 °F 70% 29.65 in 10.0 mi SSE 4.6 mph 9.2 mph N/A   Unknown
7:15 PM 42.8 °F 38.6 °F 33.8 °F 70% 29.64 in 10.0 mi SSW 6.9 mph - N/A   Unknown
7:35 PM 42.8 °F - 33.8 °F 70% 29.65 in 10.0 mi Calm Calm - N/A   Unknown
7:55 PM 42.8 °F 39.3 °F 33.8 °F 70% 29.65 in 10.0 mi South 5.8 mph - N/A   Unknown
8:15 PM 42.8 °F 36.6 °F 32.0 °F 66% 29.65 in 10.0 mi South 11.5 mph 20.7 mph N/A   Unknown
8:35 PM 41.0 °F 34.7 °F 32.0 °F 70% 29.67 in 10.0 mi South 10.4 mph 16.1 mph N/A   Unknown
8:55 PM 41.0 °F 35.2 °F 32.0 °F 70% 29.67 in 10.0 mi SSW 9.2 mph 20.7 mph N/A   Unknown
9:15 PM 41.0 °F 35.2 °F 32.0 °F 70% 29.68 in 10.0 mi SSW 9.2 mph 18.4 mph N/A   Unknown
9:35 PM 41.0 °F 35.8 °F 32.0 °F 70% 29.69 in 10.0 mi SSW 8.1 mph - N/A Rain Light Rain
9:55 PM 37.4 °F 31.4 °F 32.0 °F 81% 29.70 in 10.0 mi WSW 8.1 mph - N/A Rain Light Rain
10:15 PM 35.6 °F 30.7 °F 32.0 °F 87% 29.71 in 7.0 mi SW 5.8 mph - N/A Rain Rain
10:35 PM 35.6 °F 29.2 °F 33.8 °F 93% 29.71 in 7.0 mi South 8.1 mph - N/A Rain Light Rain
10:55 PM 35.6 °F 32.8 °F 33.8 °F 93% 29.72 in 7.0 mi SSE 3.5 mph - N/A Rain Light Rain
11:15 PM 35.6 °F 31.7 °F 32.0 °F 87% 29.72 in 4.0 mi South 4.6 mph - N/A Snow Light Snow
11:35 PM 33.8 °F - 32.0 °F 93% 29.72 in 1.2 mi Calm Calm - N/A Snow Light Snow
11:55 PM 32.0 °F - 32.0 °F 100% 29.72 in 1.0 mi Calm Calm - N/A Snow Snow